This demonstration page uses our WeatherBlox Daily Observations layout. Learn more.

Left ArrowRight Arrow

39.08367, -84.50855

Hourly Observations for May 19, 2017

Temp ( °F °C ) Dew Point ( °F °C ) Humidity (%) Winds ( mph kmh ) Pressure ( in mb ) Visibility ( mi km ) Precip ( " mm )
12:53 am 00:53 Cloudy 70 21.1 69 20.6 97 97 N N/A 29.96 1015 8 12.87472 N/A
1:53 am 01:53 Clear 69 20.6 67 19.4 93 93 N N/A 29.95 1014 10 16.0934 N/A
2:53 am 02:53 Mostly Clear 67 19.4 67 19.4 100 100 W 3 6 29.96 1015 9 14.48406 N/A
3:53 am 03:53 Mostly Cloudy 66 18.9 66 18.9 100 100 N N/A 29.98 1015 8 12.87472 N/A
4:53 am 04:53 Mostly Clear with Mist and Fog 65 18.3 65 18.3 100 100 N N/A 29.98 1015 1.75 2.816345 N/A
5:00 am 05:00 Mostly Clear with Mist and Fog 65 18.3 65 18.3 100 100 N N/A 29.97 1015 3 4.82802 N/A
5:53 am 05:53 Mostly Clear 64 17.8 64 17.8 100 100 S 5 7 29.99 1016 7 11.26538 N/A
6:26 am 06:26 Partly Cloudy with Mist and Fog 63 17.2 63 17.2 100 100 N N/A 29.97 1015 1.75 2.816345 N/A
6:33 am 06:33 Partly Cloudy with Mist and Fog 63 17.2 63 17.2 100 100 N N/A 29.97 1015 3 4.82802 N/A
6:40 am 06:40 Sunny with Mist and Fog 64 17.8 64 17.8 100 100 N N/A 29.97 1015 1 1.60934 N/A
6:47 am 06:47 Sunny with Mist and Fog 64 18 64 18 100 100 N N/A 29.97 1015 4 6.43736 N/A
6:53 am 06:53 Partly Cloudy with Patchy Fog 64 17.8 64 17.8 100 100 N N/A 29.99 1016 10 16.0934 N/A
7:53 am 07:53 Mostly Sunny 68 20 67 19.4 96 96 N N/A 29.99 1016 10 16.0934 N/A
8:53 am 08:53 Sunny 71 21.7 68 20 90 90 N N/A 29.99 1016 10 16.0934 N/A
9:53 am 09:53 Sunny 79 26.1 71 21.7 77 77 SSW 7 11 30 1016 10 16.0934 N/A
10:53 am 10:53 Sunny 81 27.2 72 22.2 74 74 SSW 7 11 30 1016 10 16.0934 N/A
11:53 am 11:53 Mostly Cloudy 82 27.8 72 22.2 72 72 SW 5 7 29.99 1016 10 16.0934 N/A
12:53 pm 12:53 Mostly Cloudy 84 28.9 71 21.7 65 65 S 15 24 29.97 1015 10 16.0934 N/A
1:53 pm 13:53 Mostly Cloudy 85 29.4 70 21.1 61 61 SW 13 20 29.94 1014 10 16.0934 N/A
2:53 pm 14:53 Partly Cloudy 85 29.4 70 21.1 61 61 SSW 15 24 29.92 1013 10 16.0934 N/A
3:53 pm 15:53 Partly Cloudy 80 26.7 68 20 67 67 SW 13 20 29.92 1013 10 16.0934 N/A
4:21 pm 16:21 Mostly Cloudy with Nearby Thunderstorms 78 25.6 68 20 71 71 WSW 10 17 29.94 1014 7 11.26538 0.01 0.254
4:29 pm 16:29 Mostly Cloudy with Thunderstorms 77 25 69 20.6 77 77 WSW 10 17 29.94 1014 5 8.0467 0.02 0.508
4:40 pm 16:40 Mostly Cloudy with Heavy Thunderstorms 71 21.7 67 19.4 87 87 NW 15 24 29.97 1015 0.75 1.207005 0.24 6.096
4:53 pm 16:53 Cloudy with Light Thunderstorms 67 19.4 64 17.8 91 91 SE 10 17 29.97 1015 6 9.65604 0.4 10.16
5:25 pm 17:25 Mostly Cloudy with Nearby Thunderstorms 67 19.4 65 18.3 93 93 WSW 6 9 29.97 1015 9 14.48406 0.01 0.254
5:29 pm 17:29 Mostly Cloudy with Light Thunderstorms 66 18.9 65 18.3 96 96 SW 5 7 29.97 1015 9 14.48406 0.01 0.254
5:53 pm 17:53 Cloudy with Nearby Thunderstorms 68 20 65 18.3 90 90 WSW 6 9 29.98 1015 10 16.0934 0.02 0.508
6:14 pm 18:14 Mostly Cloudy with Light Rain 67 19.4 66 18.9 97 97 SSE 6 9 29.94 1014 10 16.0934 0.01 0.254
6:53 pm 18:53 Partly Cloudy with Light Rain 66 18.9 65 18.3 96 96 SW 7 11 29.98 1015 10 16.0934 0.01 0.254
7:53 pm 19:53 Sunny 66 18.9 65 18.3 96 96 S 3 6 30.01 1016 10 16.0934 N/A
8:53 pm 20:53 Mostly Clear 65 18.3 65 18.3 100 100 S 3 6 30.02 1017 10 16.0934 N/A
9:53 pm 21:53 Mostly Clear 65 18.3 65 18.3 100 100 NE 6 9 30 1016 10 16.0934 N/A
10:53 pm 22:53 Clear 64 17.8 64 17.8 100 100 NE 3 6 30.02 1017 10 16.0934 N/A
11:36 pm 23:36 Clear with Mist and Fog 63 17.2 63 17.2 100 100 N N/A 30.03 1017 1.75 2.816345 N/A
11:46 pm 23:46 Clear with Mist and Fog 63 17.2 63 17.2 100 100 N N/A 30.03 1017 4 6.43736 N/A
11:53 pm 23:53 Clear with Mist and Fog 63 17.2 63 17.2 100 100 N N/A 30.05 1018 6 9.65604 N/A

Powered by AerisWeather